Regional Weather Roundup
Issued by NWS

Home | Current Version | Previous Version | Text Only | Print | Product List | Glossary Off
Versions: 1 2 3 4 5 6 7 8 9 10 11 12 13 14 15 16 17 18 19 20 21 22 23 24 25 26 27

000
ASUS45 KTFX 021210
RWRMT
MONTANA REGIONAL WEATHER ROUNDUP
NATIONAL WEATHER SERVICE GREAT FALLS MT
500 AM MST FRI DEC 02 2016

NOTE: "FAIR" INDICATES FEW OR NO CLOUDS BELOW 12000 FEET WITH NO
SIGNIFICANT WEATHER AND/OR OBSTRUCTIONS TO VISIBILITY.

MTZ001>007-043-021300-
WEST OF THE DIVIDE

CITY           SKY/WX    TMP DP  RH WIND       PRES   REMARKS
KALISPELL      CLOUDY    29  28  96 CALM      30.22R
MISSOULA       CLOUDY    31  28  89 CALM      30.26S
BUTTE          CLOUDY    17  14  88 SE3       30.17S
MULLAN PASS    CLOUDY    20  18  92 VRB5      30.15S
ANACONDA         N/A     25  21  86 NW3       30.18F
DEER LODGE       N/A     25  23  93 SE3       30.22S
EUREKA           N/A     27  25  93 CALM      30.23R
HAMILTON         N/A     30  21  69 SE5       30.25S
LIBBY            N/A     28  28 100 CALM      30.24R
PLAINS           N/A     31  25  78 CALM      30.25S
RONAN            N/A     31  28  88 CALM      30.25R
$$

MTZ008-052>055-021300-
SOUTHWEST MONTANA

CITY           SKY/WX    TMP DP  RH WIND       PRES   REMARKS
BOZEMAN        CLOUDY    25  23  92 SE6       30.19R WCI  18
DILLON         MOCLDY    20  15  81 SW5       30.17R
W YELLOWSTONE  CLOUDY    14  10  85 CALM      30.14S
ENNIS          CLOUDY    23  19  86 CALM      30.21S
THREE FORKS      N/A     24  24 100 CALM      30.16R
TWIN BRIDGES     N/A     20  13  74 E5        30.14R
$$

MTZ009-010-012-014-046-048-049-054-021300-
EAST SLOPES AND CENTRAL MONTANA

CITY           SKY/WX    TMP DP  RH WIND       PRES   REMARKS
CUT BANK       CLEAR     19  16  88 CALM      30.09S
GREAT FALLS    CLOUDY    22  18  85 SW12      30.13F WCI  10
HELENA         PTCLDY    31  19  61 W8        30.17S WCI  23
AUGUSTA          N/A     20  17  88 W8        30.09F WCI  10
BOWMANS CRNR     N/A     23  19  85 SW8       30.10S WCI  14
CHOTEAU          N/A     21  19  93 SW5       30.12S
CONRAD           N/A     10   9  96 NW2       30.11S
FAIRFIELD        N/A     23  19  84 E2        30.10F
POWER          SNOWSHWR  21  20  97 S3        30.11S VSB 3/8
RAYNESFORD     MOCLDY    27  25  92 SE2       30.12F
ULM            MOCLDY    23  21  92 SW5       30.14S
$$

MTZ011-013-016-021-045-047-050-051-021300-
NORTH CENTRAL MONTANA

CITY           SKY/WX    TMP DP  RH WIND       PRES   REMARKS
HAVRE          CLOUDY    27  26  96 SW12      30.13S WCI  17
LEWISTOWN      LGT SNOW  27  26  96 SW7       30.13R FOG     WCI  19
N BAR RANCH    CLOUDY    25  21  86 NW8       30.12S WCI  16
CHINOOK          N/A     25  23  93 CALM      30.13F
DENTON         FLURRIES  29  27  94 SW9G23    30.10S WCI  20
GEYSER         FLURRIES  27  26  94 W9        30.11F WCI  18
GRASS RANGE    CLOUDY    29  26  87 W14       30.09R WCI  19
JUDITH GAP     LGT SNOW  25  24  96 N5        30.12R FOG
ROY            CLOUDY    28  26  93 MISG      30.10S
STANFORD       FLURRIES  26  24  94 NW7       30.11S WCI  18
WINIFRED       FLURRIES  28  27  99 MISG      30.11S
$$

MTZ017>020-022>027-061-062-021300-
NORTHEAST MONTANA

CITY           SKY/WX    TMP DP  RH WIND       PRES   REMARKS
GLASGOW        CLOUDY    28  25  88 W9        30.13R WCI  19
JORDAN           N/A     30  27  88 CALM      30.13R
SIDNEY         FLURRIES  23  21  92 CALM      30.15R
WOLF POINT     CLOUDY    28  24  85 SE5       30.13F
PLENTYWOOD       N/A     27  25  93 SE3       30.13R
POPLAR           N/A     25  21  86 E3        30.14F
SCOBEY           N/A     26  20  78 CALM      30.09R
$$

MTZ028>42-056>058-021300-
SOUTHCENTRAL AND SOUTHEAST MONTANA

CITY           SKY/WX    TMP DP  RH WIND       PRES   REMARKS
BAKER          PTCLDY    19  16  88 NW3       30.12R
BILLINGS       CLOUDY    28  21  75 SW8       30.15R WCI  20
LIVINGSTON     CLOUDY    29  21  72 W9        30.15R WCI  20
MILES CITY     CLOUDY    19  16  88 S3        30.15R
BIG TIMBER     CLOUDY    28  23  80 W21G28    30.15S WCI  15
EKALAKA          N/A     23  18  81 CALM      30.06R
FORSYTH          N/A     25  21  86 CALM      30.15S
HARLOWTON      FLURRIES  28  24  86 NW6       30.14R WCI  22
LAUREL           N/A     27  11  51 CALM      30.12R
ROUNDUP          N/A     24  18  78 S7        30.04S WCI  16
$$

REGIONAL REPORTS...DAKOTAS

CITY           SKY/WX    TMP DP  RH WIND       PRES   REMARKS
WILLISTON      CLOUDY    28  23  81 CALM      30.16R
MINOT          CLOUDY    26  20  77 SE3       30.17R
DICKINSON      CLOUDY    21  18  88 S6        30.11R WCI  13
BEACH          CLOUDY    23  23 100 CALM      30.14R
CROSBY         CLOUDY    27  25  93 S7        30.17R WCI  19
TIOGA          CLOUDY    25  25 100 SE5       30.16R
WATFORD CITY   CLOUDY    27  25  93 SE5       30.15R
BISMARCK       CLOUDY    25  21  85 CALM      30.20R
GRAND FORKS    CLOUDY    29  21  72 N8        30.20R WCI  21
FARGO          CLOUDY    28  20  71 N9        30.20R WCI  19
BUFFALO SD       N/A     22  21  96 W3        30.04R
RAPID CITY     MOCLDY    23  19  85 N3        30.11R
$$

REGIONAL REPORTS...WYOMING/IDAHO/WASHINGTON

CITY           SKY/WX    TMP DP  RH WIND       PRES   REMARKS
GILLETTE       CLOUDY    25  21  85 W10       30.11R WCI  15
SHERIDAN       CLOUDY    29  24  82 S3        30.15R
BUFFALO WY     MOCLDY    28  15  58 W9        30.12R WCI  19
CODY           CLOUDY    23  15  71 SW3       30.14R
YELLOWSTONE LA   N/A     10   8  92 CALM      30.10S
IDAHO FALLS    FOG       16  14  92 CALM      30.22R VSB 1/4
SALMON         CLOUDY    27  23  86 CALM      30.26R
BOISE          CLEAR     20  18  92 S3        30.31R
SPOKANE        FOG       29  28  96 S8        30.30R VSB 1/2 WCI  21
$$

REGIONAL REPORTS...ALBERTA

CITY           SKY/WX    TMP DP  RH WIND       PRES   REMARKS
EDMONTON         N/A     19  19 100 S5        30.01F VSB 1/8
LETHBRIDGE     CLEAR     21 N/A N/A SW13      30.06F WCI   9
MEDICINE HAT   CLOUDY    27  25  93 W3        30.11S FOG
WATERTON GATE    N/A     32  16  51 SW22G32     N/A  WCI  19
CARDSTON         N/A     23  16  74 SW5         N/A
MILK RIVER       N/A     16  14  93 W2          N/A
ONEFOUR          N/A     23  23 100 NW10        N/A  WCI  12
$$

REGIONAL REPORTS...SASKATCHEWAN

CITY           SKY/WX    TMP DP  RH WIND       PRES   REMARKS
SWIFT CURRENT  CLOUDY    23  23 100 W6        30.05S WCI  16
REGINA         CLOUDY    27  25  93 W5        30.12R
SASKATOON      CLOUDY    28  23  80 CALM      30.13S
CYPRESS HILLS    N/A     19  18  93 NW5         N/A
VAL MARIE        N/A     23  19  86 W7          N/A  WCI  15
ROCKGLEN         N/A     21  21 100 CALM        N/A
ASSINIBOIA       N/A     27  25  93 S3          N/A
$$




USA.gov is the U.S. government's official web portal to all federal, state and local government web resources and services.